Location: Saint-Gilles les Bains
(21.0539°S, 55.2287°E)
Time: 16:56:38
(UTC+04:00)

Hubble Space Telescope - Visible Passes

Search period start: 13 April 2024 00:00
Search period end: 23 April 2024 00:00
Orbit: 514 x 518 km, 28.5° (Epoch: 13 April)

Date Brightness Start Highest point End Pass type
(mag) Time Alt. Az. Time Alt. Az. Time Alt. Az.
13 Apr 1.7 04:57:55 34° N 04:58:44 39° NNE 05:02:30 10° E visible
14 Apr 1.8 04:41:23 42° NE 04:41:23 42° NE 04:44:38 10° E visible
15 Apr 2.8 04:24:45 26° E 04:24:45 26° E 04:26:42 10° ESE visible
15 Apr 1.3 05:59:39 10° W 06:03:28 42° SSW 06:07:20 10° ESE visible
16 Apr 3.7 04:08:02 15° ESE 04:08:02 15° ESE 04:08:44 10° ESE visible
16 Apr 1.5 05:42:55 18° WSW 05:45:31 38° SSW 05:49:19 10° ESE visible
17 Apr 1.6 05:26:08 27° SW 05:27:33 35° S 05:31:18 10° ESE visible
18 Apr 1.6 05:09:16 32° SSW 05:09:35 33° S 05:13:16 10° ESE visible
19 Apr 2.1 04:52:22 29° SSE 04:52:22 29° SSE 04:55:14 10° SE visible
20 Apr 2.8 04:35:25 21° SE 04:35:25 21° SE 04:37:13 10° SE visible
21 Apr 3.5 04:18:27 14° SE 04:18:27 14° SE 04:19:11 10° ESE visible
21 Apr 1.9 05:53:19 11° SW 05:56:48 32° S 06:00:27 10° ESE visible
22 Apr 1.8 05:36:20 18° SW 05:38:47 34° S 05:42:29 10° ESE visible
